Wind_Speed
30 30 31 30 30 30 31 31 33 33 33 32 32 32 32 32 32 32 33 34 34 34 35 36 37 39 39 41 42 42 42 42 43 44 44 45 46 47 47 47 48 49 50 50
29 29 30 31 32 32 33 33 33 34 33 32 33 33 33 34 34 34 34 35 35 36 36 37 38 39 40 41 41 42 42 42 43 43 44 45 46 46 47 47 48 49 50 50
29 29 30 30 29 31 33 33 34 34 34 34 34 35 35 35 36 36 36 37 37 38 38 38 39 40 41 41 41 41 41 42 42 43 44 45 46 47 47 48 48 49 50 50
29 29 31 30 29 30 32 32 33 34 34 35 35 35 36 37 37 38 38 38 39 39 39 40 40 41 41 42 41 41 42 42 43 44 44 45 46 47 48 48 48 48 49 49
30 30 30 30 30 30 32 32 33 34 35 35 35 35 36 37 38 38 39 40 40 40 40 41 42 42 43 43 42 42 42 43 44 44 45 46 46 47 47 48 48 47 48 48
29 31 31 29 29 30 32 32 32 34 35 35 35 36 36 37 37 38 39 40 40 41 41 42 42 42 42 42 42 43 43 44 44 45 45 46 46 47 47 47 47 47 47 47
29 31 31 30 30 31 32 32 32 33 34 34 35 36 37 38 38 38 39 39 40 41 42 42 42 42 42 42 42 43 43 44 45 45 46 46 47 47 47 47 47 47 47 47
28 30 30 30 32 32 33 33 33 34 34 35 35 36 36 37 37 38 38 39 40 41 41 42 42 42 41 42 43 43 44 45 45 46 46 46 46 46 46 46 46 46 46 46
28 29 29 30 31 31 32 32 33 35 35 35 36 36 36 37 37 37 38 39 39 40 41 41 41 41 41 42 43 44 44 44 45 45 45 45 45 45 45 45 45 45 45 46
28 28 29 29 29 30 30 31 32 34 35 36 36 36 37 37 37 37 38 38 39 40 40 40 41 41 41 42 43 43 43 43 44 44 44 44 43 43 43 44 44 44 45 45
28 28 29 29 30 31 32 32 32 33 34 35 35 36 36 37 37 37 38 39 39 39 39 39 39 40 41 41 42 42 42 43 43 43 42 42 42 42 42 43 43 44 43 43
29 29 30 30 31 31 32 32 33 33 34 34 35 35 36 36 37 37 37 37 38 38 38 38 39 39 40 40 41 41 41 41 41 41 41 41 41 42 42 43 43 43 43 43
29 29 30 30 30 31 32 32 33 34 34 34 35 36 36 37 37 37 37 37 37 37 38 38 38 39 39 40 40 40 40 39 39 39 40 40 40 41 41 41 42 42 42 42
29 29 29 30 30 31 32 33 34 35 35 35 36 36 37 38 38 38 38 37 37 38 38 38 38 39 39 39 39 39 38 38 39 39 40 40 40 40 40 40 40 41 41 42
29 29 29 30 31 32 33 34 35 35 36 36 37 37 38 38 38 38 38 38 38 38 38 38 38 39 39 39 39 38 38 39 40 40 41 41 41 40 40 40 39 39 40 41
30 30 30 31 32 33 33 34 35 35 36 36 37 37 38 38 37 38 38 38 38 38 38 39 39 39 39 39 39 39 40 40 40 40 40 40 40 40 40 40 40 39 39 40
30 30 30 30 31 32 33 34 35 35 36 36 36 36 36 37 36 37 37 37 37 38 38 39 39 39 39 40 40 40 40 41 41 41 40 40 40 40 40 39 39 39 39 39
29 30 30 30 31 32 33 34 34 34 35 35 35 35 35 35 35 35 36 36 37 37 38 38 38 38 39 39 40 40 41 41 41 40 40 39 39 40 39 39 38 38 37 37
28 29 29 30 31 32 33 33 33 33 33 33 33 33 33 34 34 35 35 35 36 36 36 36 37 38 38 39 40 40 40 40 39 39 39 39 39 39 38 38 37 37 36 35
27 28 29 30 30 31 31 32 32 32 32 32 32 32 33 33 33 33 34 34 34 34 34 35 36 37 38 39 39 39 39 38 38 39 39 38 38 37 37 36 36 35 34 34
27 28 28 29 29 30 30 31 31 31 31 31 32 32 32 32 33 33 33 33 33 33 34 35 36 37 38 38 38 38 38 37 37 37 37 36 36 35 35 35 34 34 33 33
27 28 28 29 29 29 29 30 30 31 31 31 32 32 32 32 32 32 32 32 32 33 34 35 36 37 38 37 37 37 36 36 35 35 35 34 34 34 34 33 33 33 32 32
27 28 28 28 28 29 29 29 30 31 31 31 31 31 31 31 31 31 31 32 33 34 35 36 37 38 37 37 36 35 35 34 33 33 33 33 33 33 32 31 31 31 30 30
27 28 28 29 28 28 29 29 29 29 30 30 31 31 31 31 31 32 32 33 34 35 36 37 37 37 36 35 34 33 33 32 32 31 31 31 31 31 30 30 29 29 29 29
28 28 28 28 28 28 29 29 29 29 30 30 31 31 31 31 31 32 33 34 35 35 36 36 37 36 35 33 33 32 31 31 31 30 30 30 30 30 29 29 28 28 28 28
27 27 27 27 27 28 28 28 29 30 30 30 29 30 30 31 31 32 32 33 34 34 34 34 34 33 32 31 31 31 30 30 30 30 29 29 29 29 28 28 27 27 26 26
27 27 27 27 27 28 28 28 28 29 28 29 29 30 30 30 30 31 31 32 33 33 32 32 31 31 30 30 30 30 30 30 29 29 29 29 28 28 27 26 26 25 25 25
Wind_Direction
267 267 266 265 265 267 269 272 274 275 275 276 275 276 277 277 278 278 278 278 278 276 276 276 276 276 277 278 278 278 278 279 279 279 279 279 280 280 280 281 281 281 281 281
267 266 267 267 267 269 270 271 274 275 275 274 274 276 277 279 279 280 280 280 279 279 279 279 279 279 280 280 280 281 280 280 280 280 280 280 281 282 282 282 282 282 282 282
268 267 268 269 271 272 273 272 274 276 277 276 276 277 278 279 280 280 280 281 282 281 281 281 281 281 282 282 282 282 282 281 281 281 281 282 282 282 283 283 283 283 283 283
271 269 269 273 273 273 273 274 276 277 279 280 279 279 279 279 280 281 281 281 282 281 281 282 282 282 282 282 283 283 283 282 282 283 283 283 283 283 283 283 283 283 284 284
274 274 274 274 276 276 276 276 277 279 280 282 280 279 280 281 280 281 281 282 282 282 282 282 282 282 283 283 283 283 283 283 283 283 284 284 284 284 284 283 283 283 284 284
275 275 277 279 279 278 278 278 280 281 282 282 282 281 281 282 281 281 282 283 283 283 283 283 283 283 283 283 283 284 284 284 284 284 284 285 285 285 285 285 284 284 284 284
275 276 277 279 280 279 279 281 281 283 284 284 284 284 284 282 282 282 283 283 284 284 283 283 283 283 283 283 283 284 285 285 285 285 285 285 285 286 285 285 285 284 284 284
276 277 280 280 279 278 280 281 281 282 283 284 284 285 285 285 284 283 284 284 284 284 284 284 284 284 284 284 284 285 285 286 286 286 286 286 286 286 286 285 285 284 285 285
278 279 280 280 279 280 281 281 282 283 284 285 285 285 285 286 285 285 285 285 285 286 285 284 284 284 284 284 285 286 286 287 287 287 287 287 286 286 285 285 285 285 285 285
280 280 279 280 279 281 282 283 284 285 285 285 285 286 286 286 286 286 286 287 287 287 286 285 284 284 285 285 286 287 288 288 289 289 288 288 287 287 286 286 286 286 286 286
280 282 280 279 280 281 282 283 285 287 287 287 287 288 289 288 288 287 287 287 287 287 286 286 286 286 286 286 287 288 289 289 289 289 288 288 288 288 287 287 287 287 287 287
282 282 282 281 280 281 282 284 286 287 288 289 289 289 290 289 289 289 288 288 288 288 288 288 288 287 287 288 289 290 290 290 290 290 290 289 289 289 289 289 288 288 288 288
282 283 283 282 281 281 283 284 286 287 289 289 289 289 290 290 290 290 289 290 289 289 290 290 290 290 289 290 290 291 291 291 291 291 292 292 291 291 291 290 290 289 289 289
281 282 283 283 282 283 284 286 287 288 289 290 290 290 290 290 290 290 290 290 290 290 290 290 291 291 292 292 291 291 291 291 292 293 293 293 293 292 292 291 291 290 290 290
279 281 283 284 285 285 286 287 288 289 290 291 291 291 290 290 290 290 290 290 291 291 291 291 292 292 293 293 292 291 291 292 293 294 294 294 293 293 293 293 292 291 291 291
278 280 283 285 286 287 288 288 289 290 291 292 292 292 291 290 290 290 291 291 292 291 291 291 292 293 293 293 292 291 292 293 294 294 295 294 294 293 294 293 293 293 292 292
280 282 284 286 287 288 288 289 290 291 292 293 293 292 291 291 291 292 293 293 293 292 292 293 293 293 293 293 293 292 292 293 294 294 294 294 294 294 294 294 294 294 293 293
283 284 286 288 290 291 292 292 292 292 293 294 293 292 292 292 293 294 294 294 294 294 294 294 294 294 294 294 294 293 293 294 294 294 294 294 294 294 294 294 294 294 294 293
286 286 288 289 291 292 292 293 293 294 295 295 295 294 294 294 295 295 296 296 296 296 296 296 296 296 296 296 296 295 295 294 294 293 293 293 294 294 294 294 294 294 294 293
290 289 290 291 292 292 293 294 294 295 296 297 298 297 297 297 296 297 297 297 298 298 298 298 298 299 299 298 298 297 296 295 294 294 293 293 294 294 294 294 294 294 294 293
292 292 292 293 294 294 294 295 296 297 297 298 299 299 298 298 298 298 298 299 299 300 300 301 301 302 302 301 300 299 298 296 295 294 293 293 294 295 295 294 294 294 294 293
293 293 294 295 296 295 296 297 298 298 299 299 299 300 300 299 299 299 300 300 301 302 303 304 304 304 304 303 302 301 300 298 296 295 294 294 295 295 295 295 294 294 293 293
296 295 295 296 296 297 297 298 300 301 301 301 300 300 300 300 300 301 301 302 303 304 304 305 305 305 305 304 303 302 301 299 297 296 295 295 296 296 295 295 294 294 293 292
297 297 297 297 298 299 299 300 302 302 303 303 303 302 302 302 302 303 303 304 304 305 305 306 306 306 305 304 304 303 302 301 300 298 298 298 298 297 297 296 295 294 293 293
300 299 299 300 300 301 301 302 303 303 304 304 304 304 303 303 303 304 304 305 306 306 306 307 307 306 306 305 304 304 303 302 301 300 299 299 299 298 297 296 295 294 294 293
302 301 301 302 303 303 303 303 304 304 304 304 304 305 306 306 306 306 306 307 308 308 309 309 309 309 308 307 306 306 305 304 303 302 301 301 300 299 297 296 295 295 294 294
303 303 303 304 304 305 305 306 306 306 306 306 306 307 308 308 308 308 309 310 310 310 311 311 311 311 310 309 309 308 307 305 304 303 302 301 301 299 298 297 296 295 295 294
Height
5586 5587 5587 5587 5588 5588 5588 5587 5587 5588 5588 5590 5587 5586 5586 5585 5584 5583 5582 5581 5579 5578 5577 5575 5574 5573 5571 5569 5567 5566 5564 5562 5560 5559 5557 5555 5553 5551 5549 5547 5545 5542 5540 5537
5579 5579 5579 5579 5581 5580 5580 5579 5579 5578 5579 5580 5578 5577 5577 5576 5575 5574 5573 5571 5570 5568 5567 5565 5563 5562 5560 5558 5556 5554 5552 5550 5548 5547 5545 5543 5541 5538 5536 5534 5531 5529 5526 5523
5571 5571 5570 5572 5574 5573 5572 5572 5571 5570 5571 5570 5569 5568 5567 5566 5565 5564 5563 5561 5559 5558 5556 5554 5552 5550 5548 5546 5544 5542 5540 5538 5537 5535 5532 5530 5528 5525 5523 5520 5517 5514 5512 5509
5562 5564 5563 5567 5566 5565 5564 5564 5563 5562 5561 5560 5560 5559 5557 5556 5555 5554 5552 5551 5549 5547 5545 5543 5541 5539 5537 5535 5533 5531 5528 5526 5524 5522 5520 5517 5515 5512 5509 5506 5503 5501 5498 5495
5555 5554 5555 5558 5557 5556 5554 5555 5554 5553 5552 5551 5550 5548 5548 5546 5545 5543 5542 5540 5538 5536 5534 5532 5530 5528 5526 5523 5521 5519 5517 5514 5512 5510 5507 5504 5502 5499 5496 5493 5490 5487 5484 5481
5548 5547 5547 5551 5549 5547 5546 5546 5546 5544 5542 5541 5540 5539 5539 5536 5534 5533 5531 5529 5527 5525 5523 5521 5519 5516 5514 5512 5509 5507 5505 5502 5500 5497 5494 5491 5488 5485 5482 5479 5476 5473 5470 5467
5541 5539 5540 5542 5540 5538 5539 5538 5536 5534 5533 5532 5530 5529 5528 5525 5524 5522 5520 5518 5516 5514 5511 5509 5507 5505 5502 5500 5498 5495 5493 5490 5487 5484 5482 5478 5475 5472 5469 5466 5463 5460 5457 5454
5533 5532 5535 5533 5531 5531 5529 5528 5527 5525 5524 5522 5520 5518 5516 5515 5513 5511 5509 5507 5505 5502 5500 5497 5495 5493 5491 5489 5486 5483 5481 5478 5475 5472 5469 5465 5462 5459 5456 5453 5450 5447 5444 5440
5527 5528 5526 5524 5522 5521 5520 5519 5518 5516 5515 5513 5511 5509 5507 5505 5503 5500 5498 5496 5494 5491 5488 5486 5483 5481 5479 5476 5474 5471 5468 5465 5462 5459 5456 5452 5449 5446 5443 5440 5437 5434 5431 5427
5519 5519 5517 5516 5514 5513 5512 5510 5509 5507 5505 5503 5501 5499 5497 5495 5492 5490 5488 5485 5483 5480 5477 5474 5472 5469 5467 5464 5461 5458 5455 5452 5449 5446 5443 5439 5436 5433 5430 5427 5424 5421 5418 5414
5511 5511 5509 5508 5506 5505 5503 5502 5500 5498 5496 5494 5491 5489 5487 5484 5482 5479 5477 5474 5471 5468 5466 5463 5460 5458 5455 5452 5449 5446 5443 5440 5437 5433 5430 5427 5424 5420 5417 5414 5411 5408 5405 5401
5504 5503 5501 5500 5498 5496 5495 5493 5491 5489 5487 5484 5482 5479 5477 5474 5471 5469 5466 5463 5460 5457 5455 5452 5449 5446 5443 5440 5437 5434 5431 5428 5425 5422 5418 5415 5412 5408 5404 5401 5398 5394 5391 5388
5496 5495 5493 5491 5490 5488 5486 5484 5482 5480 5477 5475 5472 5469 5467 5464 5461 5458 5455 5452 5449 5447 5444 5441 5438 5435 5431 5428 5425 5422 5419 5416 5413 5410 5407 5403 5400 5397 5393 5389 5385 5382 5379 5375
5488 5486 5485 5483 5482 5480 5478 5475 5473 5471 5468 5465 5462 5460 5456 5453 5450 5447 5444 5442 5439 5436 5433 5430 5427 5423 5420 5417 5414 5411 5407 5404 5401 5398 5395 5391 5388 5385 5381 5378 5374 5370 5366 5363
5480 5478 5477 5475 5473 5471 5469 5466 5464 5461 5458 5456 5453 5449 5446 5443 5440 5437 5434 5431 5428 5425 5422 5419 5415 5412 5409 5405 5402 5399 5396 5393 5390 5387 5383 5379 5376 5372 5369 5365 5362 5359 5355 5351
5471 5470 5469 5467 5465 5463 5460 5457 5455 5452 5449 5446 5442 5439 5435 5432 5429 5426 5423 5420 5417 5414 5410 5407 5404 5401 5397 5394 5391 5388 5384 5381 5378 5375 5371 5367 5364 5361 5357 5354 5350 5347 5343 5340
5463 5462 5460 5458 5456 5454 5451 5448 5445 5442 5439 5435 5432 5429 5425 5422 5419 5415 5412 5409 5406 5402 5399 5396 5393 5389 5386 5382 5379 5376 5372 5369 5366 5362 5359 5355 5352 5349 5345 5342 5338 5335 5331 5327
5455 5453 5451 5449 5447 5445 5442 5439 5436 5433 5429 5426 5422 5418 5415 5412 5409 5405 5402 5398 5395 5392 5388 5384 5381 5377 5374 5370 5367 5363 5360 5357 5353 5350 5347 5343 5340 5337 5333 5330 5326 5323 5319 5316
5447 5445 5443 5441 5438 5436 5433 5430 5427 5423 5420 5416 5412 5409 5405 5402 5399 5395 5392 5388 5385 5381 5377 5373 5370 5366 5362 5358 5354 5351 5348 5344 5341 5338 5334 5331 5328 5325 5321 5318 5314 5311 5308 5305
5439 5437 5434 5432 5430 5427 5424 5421 5418 5414 5411 5407 5403 5400 5396 5393 5389 5386 5382 5378 5374 5371 5367 5363 5359 5355 5351 5347 5343 5339 5335 5332 5329 5326 5323 5319 5316 5313 5309 5306 5303 5300 5297 5294
5431 5429 5426 5424 5421 5418 5415 5412 5409 5405 5402 5398 5395 5391 5387 5384 5380 5376 5373 5369 5365 5361 5357 5353 5349 5344 5340 5335 5331 5327 5323 5320 5317 5314 5311 5308 5304 5301 5298 5295 5292 5289 5286 5283
5423 5421 5418 5415 5412 5410 5406 5403 5400 5396 5393 5389 5386 5382 5378 5375 5371 5367 5363 5360 5356 5352 5347 5343 5338 5334 5329 5324 5320 5316 5312 5308 5305 5302 5299 5296 5293 5290 5287 5284 5281 5278 5275 5273
5415 5413 5410 5407 5404 5401 5398 5394 5391 5388 5384 5380 5376 5373 5369 5365 5362 5358 5355 5351 5346 5342 5337 5333 5328 5323 5318 5314 5309 5305 5301 5298 5294 5291 5288 5286 5283 5280 5277 5274 5271 5268 5265 5263
5408 5405 5402 5399 5396 5393 5389 5386 5382 5379 5375 5371 5368 5364 5360 5357 5353 5349 5345 5341 5337 5332 5327 5323 5318 5313 5308 5304 5299 5295 5291 5288 5284 5281 5278 5275 5272 5269 5267 5264 5261 5259 5256 5254
5400 5397 5394 5391 5388 5385 5381 5377 5374 5370 5367 5363 5359 5355 5351 5348 5344 5340 5336 5331 5327 5322 5317 5312 5308 5303 5298 5294 5290 5286 5282 5278 5275 5272 5269 5266 5263 5260 5257 5254 5252 5249 5247 5245
5392 5389 5386 5383 5380 5377 5373 5370 5366 5362 5358 5354 5351 5347 5343 5339 5335 5330 5326 5322 5317 5312 5308 5303 5298 5294 5289 5285 5281 5277 5273 5269 5266 5262 5259 5256 5253 5250 5248 5245 5243 5240 5238 5236
5385 5382 5379 5375 5372 5369 5365 5362 5358 5354 5350 5347 5343 5339 5335 5331 5326 5322 5318 5313 5308 5303 5299 5294 5290 5285 5281 5276 5272 5268 5264 5261 5257 5253 5250 5247 5244 5241 5239 5236 5234 5232 5230 5228